Location: Unspecified
(50.0830°N, 0.0000°E)
Time: 01:59:32
(UTC+00:00)

N. Korean satellite - Pass Details

Date: 19 November 2019
Orbit: 456 x 506 km, 97.2° (Epoch: 07 December)

Event Time Altitude Azimuth Distance (km) Brightness Sun altitude
Rises 06:05:58 0° 12° (NNE) 2,623 10.2 -11.5°
Reaches altitude 10° 06:08:05 10° 11° (NNE) 1,730 9.3 -11.2°
Maximum altitude 06:11:49 83° 287° (WNW) 513 6.6 -10.7°
Drops below altitude 10° 06:15:29 10° 197° (SSW) 1,697 9.3 -10.1°
Sets 06:17:32 0° 196° (SSW) 2,568 10.3 -9.8°
